EST,Max TemperatureF,Mean TemperatureF,Min TemperatureF,Max Dew PointF,MeanDew PointF,Min DewpointF,Max Humidity, Mean Humidity, Min Humidity, Max Sea Level PressureIn, Mean Sea Level PressureIn, Min Sea Level PressureIn, Max VisibilityMiles, Mean VisibilityMiles, Min VisibilityMiles, Max Wind SpeedMPH, Mean Wind SpeedMPH, Max Gust SpeedMPH,PrecipitationIn, CloudCover, Events, WindDirDegrees
2011-11-1,51,38,28,35,32,27,96,80,56,30.39,30.37,30.34,10,10,8,7,4,,0.00,1,,335
2011-11-2,54,40,27,39,33,26,96,80,50,30.40,30.31,30.20,10,10,8,7,4,,0.00,0,,304
2011-11-3,59,42,28,40,35,28,100,79,46,30.20,30.01,29.86,10,8,2,7,1,,0.00,1,,218
2011-11-4,50,41,32,40,28,22,79,59,38,30.24,30.02,29.86,10,10,10,21,7,30,0.00,2,,322
2011-11-5,50,39,28,26,21,15,78,56,25,30.45,30.37,30.25,10,10,10,10,3,,0.00,0,,322
2011-11-6,57,41,25,27,22,18,88,54,22,30.45,30.38,30.29,10,10,10,6,3,,0.00,0,,300
2011-11-7,64,48,32,45,34,27,85,59,28,30.25,30.19,30.13,10,10,10,6,2,,0.00,0,,221
2011-11-8,66,56,46,47,44,42,93,66,43,30.22,30.19,30.15,10,10,9,10,3,,0.00,2,,294
2011-11-9,66,54,42,50,46,41,100,81,54,30.20,30.14,30.06,10,9,4,8,3,,0.00,1,,162
2011-11-10,62,55,48,57,54,47,100,97,77,30.05,29.75,29.45,10,5,0,8,2,,0.78,8,Fog-Rain,50
2011-11-11,55,45,35,54,36,22,94,74,39,29.78,29.50,29.37,10,10,5,22,11,30,0.01,5,Rain,305
2011-11-12,51,42,32,29,27,22,73,56,36,30.07,29.97,29.82,10,10,10,7,3,,0.00,1,,209
2011-11-13,57,44,30,42,35,28,92,70,49,30.14,30.02,29.90,10,10,9,7,2,,0.00,1,,181
2011-11-14,64,56,48,51,43,39,97,63,43,29.88,29.78,29.68,10,10,5,7,3,,0.06,2,Rain,185
2011-11-15,64,55,44,53,46,37,100,74,46,29.94,29.74,29.59,10,9,2,10,2,20,0.02,2,Rain,293
2011-11-16,55,46,36,52,47,35,100,90,66,29.94,29.80,29.67,10,6,0,6,1,,0.25,5,Fog-Rain,303
2011-11-17,51,44,37,50,33,23,96,67,47,29.82,29.75,29.67,10,10,10,18,7,24,0.01,7,Rain,305
2011-11-18,43,38,30,23,20,16,69,51,34,30.35,30.20,29.88,10,10,10,13,6,25,0.00,0,,288
2011-11-19,52,40,28,25,22,19,78,53,28,30.33,30.26,30.19,10,10,10,8,1,21,0.00,1,,193
2011-11-20,63,49,35,44,38,28,85,63,48,30.13,30.00,29.91,10,10,10,9,2,18,0.00,2,,276
2011-11-21,48,36,25,36,26,19,85,62,37,30.36,30.27,30.09,10,10,10,17,8,24,0.00,0,,323
2011-11-22,44,32,21,31,27,19,92,77,55,30.41,30.34,30.23,10,10,10,7,3,,0.00,2,Rain,324
2011-11-23,37,34,28,36,31,25,100,91,81,30.20,29.87,29.66,10,7,2,18,9,32,1.19,7,Rain-Snow,20
2011-11-24,37,30,24,31,27,23,93,82,68,30.14,30.08,29.96,10,10,10,8,3,,0.00,2,,302
2011-11-25,55,42,28,38,33,27,96,69,49,30.09,30.00,29.94,10,9,5,6,1,,0.00,0,,250
2011-11-26,59,49,37,38,35,33,89,63,42,30.22,30.12,29.99,10,10,10,8,2,,0.00,0,,306
2011-11-27,50,44,37,46,42,36,100,94,82,30.23,30.17,30.06,10,5,0,7,4,,0.00,6,Fog,1
2011-11-28,63,54,44,52,47,43,100,87,65,30.10,30.05,30.01,10,6,0,5,1,,0.00,2,Fog,189
2011-11-29,55,52,48,54,50,46,96,90,82,30.11,30.01,29.75,10,10,8,8,2,16,0.00,8,Rain,76
2011-11-30,57,50,39,57,45,30,100,78,53,29.79,29.63,29.56,10,8,2,16,8,28,0.67,5,Rain,174